Location: Beutels
(47.8767°N, 9.8584°E)
Time: 01:02:47
(UTC+00:00)

NOSS 2-1 (D) - Pass Details

Date: 19 May 2025
Orbit: 377 x 1697 km, 63.3° (Epoch: 23 June)

Event Time Altitude Azimuth Distance (km) Brightness Sun altitude
Exits shadow 22:36:23 60° 328° (NNW) 475 3.2 -21.5°
Drops below altitude 10° 22:39:13 10° 34° (NE) 1,412 6.0 -21.6°
Sets 22:41:10 0° 39° (NE) 2,257 7.1 -21.7°
